Weather History for TNCB - October, 2014

Change the Weather History Date:

Wednesday, October 8, 2014

  Actual Average Record
Temperature  
Mean Temperature 86 °F -  
Max Temperature 89 °F 87 °F 95 °F (2005)
Min Temperature 82 °F 80 °F 73 °F (2007)
Cooling Degree Days 20    
Growing Degree Days 36 (Base 50)    
Moisture  
Dew Point 75 °F    
Average Humidity 73    
Maximum Humidity 79    
Minimum Humidity 62    
Precipitation  
Precipitation 0.00 in - - ()
Sea Level Pressure  
Sea Level Pressure 29.82 in    
Wind  
Wind Speed 11 mph ()    
Max Wind Speed 16 mph    
Max Gust Speed -    
Visibility 6.2 miles    
Events      
Averages and records for this station are not official NWS values.
T = Trace of Precipitation, MM = Missing Value Source: Averaged Metar Reports

Daily Weather History Graph

Daily Weather History Graph

Search for Another Location

Airport or City:

Trip Planner

Search our weather history database for the weather conditions in past years. The results will help you decide how hot, cold, wet, or windy it might be!

Date:

Astronomy

Oct. 08, 2014 Rise Set
Actual Time 6:22 AM AST 6:18 PM AST
Civil Twilight 6:01 AM AST 6:39 PM AST
Nautical Twilight 5:36 AM AST 7:04 PM AST
Astronomical Twilight 5:11 AM AST 7:29 PM AST
Moon 6:38 PM AST (10/8) 6:22 AM AST (10/8)
Length of Visible Light 12h 38m
Length of Day
11h 56m
Full, 100% of the Moon is Illuminated
Oct 8
Full
Oct 15
Last Quarter
Oct 23
New
Oct 30
First Quarter
Nov 6
Full

Hourly Weather History & Observations

Time (AST) Temp. Heat Index Dew Point Humidity Pressure Visibility Wind Dir Wind Speed Gust Speed Precip Events Conditions
3:00 AM 82.4 °F 89.5 °F 75.2 °F 79% 29.83 in - ENE 12.7 mph - N/A   Unknown
5:00 AM 82.4 °F 89.5 °F 75.2 °F 79% 29.83 in - ENE 11.5 mph - N/A   Unknown
6:00 AM 82.4 °F 89.5 °F 75.2 °F 79% 29.83 in 6.2 mi ENE 11.5 mph - N/A   Partly Cloudy
7:00 AM 82.4 °F 89.5 °F 75.2 °F 79% - - ENE 11.5 mph - N/A   Unknown
8:00 AM 84.2 °F 92.3 °F 75.2 °F 74% 29.86 in 6.2 mi ENE 16.1 mph - N/A   Scattered Clouds
9:00 AM 86.0 °F 95.1 °F 75.2 °F 70% 29.86 in 6.2 mi ENE 16.1 mph - N/A   Scattered Clouds
10:00 AM 86.0 °F 95.1 °F 75.2 °F 70% 29.89 in 6.2 mi East 16.1 mph - N/A   Scattered Clouds
11:00 AM 89.6 °F 102.2 °F 77.0 °F 66% 29.89 in 6.2 mi East 12.7 mph - N/A   Mostly Cloudy
12:00 PM 89.6 °F 102.2 °F 77.0 °F 66% 29.86 in - ESE 13.8 mph - N/A   Unknown
1:00 PM 89.6 °F 99.8 °F 75.2 °F 62% 29.83 in - East 13.8 mph - N/A   Unknown
1:55 PM 87.8 °F 97.6 °F 75.2 °F 66% 29.80 in - East 12.7 mph - N/A   Unknown
3:00 PM 89.6 °F 99.8 °F 75.2 °F 62% 29.77 in 6.2 mi East 11.5 mph - N/A   Mostly Cloudy
4:00 PM 87.8 °F 97.6 °F 75.2 °F 66% 29.77 in 6.2 mi ENE 13.8 mph - N/A   Mostly Cloudy
5:00 PM 86.0 °F 95.1 °F 75.2 °F 70% 29.74 in - ENE 11.5 mph - N/A   Unknown
6:00 PM 84.2 °F 92.3 °F 75.2 °F 74% 29.77 in 6.2 mi NE 10.4 mph - N/A   Scattered Clouds
7:00 PM 84.2 °F 92.3 °F 75.2 °F 74% 29.77 in - ENE 11.5 mph - N/A   Unknown
8:00 PM 82.4 °F 89.5 °F 75.2 °F 79% 29.80 in 6.2 mi ENE 9.2 mph - N/A   Partly Cloudy
9:00 PM 82.4 °F 89.5 °F 75.2 °F 79% 29.83 in - NE 9.2 mph - N/A   Unknown
10:00 PM 82.4 °F 89.5 °F 75.2 °F 79% 29.83 in - NE 9.2 mph - N/A   Unknown
11:00 PM 82.4 °F 89.5 °F 75.2 °F 79% 29.83 in - NE 8.1 mph - N/A   Unknown